EW7837 Weather Reports


time (UTC)temp
C
wind
direction
speed
KPH
gust
KPH
rain 1hr
cm
rain 24hr
cm
rain mn
cm
humidity
%
barometer
mb
20260504004548 19 251 0.0 0.0 0.00 0.00 0.00 67 1010.5
20260504003043 19 269 0.0 0.0 0.00 0.00 0.00 65 1010.2
20260504001555 20 245 0.0 0.0 0.00 0.00 0.00 62 1010.3
20260504000010 20 268 0.0 0.0 0.00 0.00 0.00 60 1010.2
20260503234510 21 255 0.0 0.0 0.00 0.00 0.00 55 1009.7
20260503233044 22 265 0.0 0.0 0.00 0.00 0.00 56 1009.8
20260503231542 22 247 0.0 0.0 0.00 0.00 0.00 54 1010.0
20260503230040 21 269 0.0 0.0 0.00 0.00 0.00 56 1010.2
20260503224539 21 261 1.6 0.0 0.00 0.00 0.00 55 1010.2
20260503223034 21 265 0.0 0.0 0.00 0.00 0.00 56 1010.3
20260503221534 21 265 0.0 0.0 0.00 0.00 0.00 57 1010.4
20260503220030 21 242 0.0 0.0 0.00 0.00 0.00 60 1010.6
20260503214528 21 263 0.0 0.0 0.00 0.00 0.00 63 1010.6
20260503213028 20 267 0.0 0.0 0.00 0.00 0.00 63 1010.7
20260503211528 20 254 0.0 0.0 0.00 0.00 0.00 64 1010.8
20260503210058 20 267 1.6 0.0 0.00 0.00 0.00 63 1010.7
20260503204557 21 265 0.0 0.0 0.00 0.00 0.00 63 1010.6
20260503203053 21 273 1.6 0.0 0.00 0.00 0.00 63 1010.6
20260503201552 21 277 0.0 0.0 0.00 0.00 0.00 63 1010.9
20260503200057 21 281 1.6 0.0 0.00 0.00 0.00 64 1010.9
20260503194549 20 271 0.0 0.0 0.00 0.00 0.00 66 1011.2
20260503193040 20 267 1.6 0.0 0.00 0.00 0.00 67 1011.2
20260503191531 21 261 1.6 0.0 0.00 0.00 0.00 64 1011.1
20260503190015 21 263 0.0 0.0 0.00 0.00 0.00 65 1011.1
20260503184521 21 275 1.6 0.0 0.00 0.00 0.00 64 1011.1
20260503183013 21 264 0.0 0.0 0.00 0.00 0.00 65 1011.0
20260503181510 21 264 0.0 0.0 0.00 0.00 0.00 66 1011.1
20260503180013 21 265 0.0 0.0 0.00 0.00 0.00 69 1011.1
20260503174504 20 265 0.0 0.0 0.00 0.00 0.00 69 1011.1
20260503173006 20 264 0.0 0.0 0.00 0.00 0.00 69 1011.1
20260503171559 20 265 0.0 0.0 0.00 0.00 0.00 70 1011.1
20260503081523 17 264 0.0 0.0 0.00 0.00 0.00 82 1010.6
20260503071519 17 264 0.0 0.0 0.00 0.00 0.00 83 1010.9
20260503060112 17 264 0.0 0.0 0.00 0.00 0.00 84 1010.8
20260503054545 17 264 0.0 0.0 0.00 0.00 0.00 84 1010.8
20260503053044 17 264 0.0 0.0 0.00 0.00 0.00 84 1010.6
20260503051547 16 264 0.0 0.0 0.00 0.00 0.00 84 1010.4
20260503050042 16 264 0.0 0.0 0.00 0.00 0.00 84 1009.9
20260503044529 16 264 0.0 0.0 0.00 0.00 0.00 83 1009.6
20260503043010 17 264 0.0 0.0 0.00 0.00 0.00 83 1009.5
20260503041507 17 264 0.0 0.0 0.00 0.00 0.00 82 1009.1
20260503040005 17 264 0.0 0.0 0.00 0.00 0.00 82 1008.7
20260503034504 17 264 0.0 0.0 0.00 0.00 0.00 82 1008.5
20260503033001 17 264 0.0 0.0 0.00 0.00 0.00 81 1008.3
20260503031531 17 264 0.0 0.0 0.00 0.00 0.00 81 1008.1
20260503030028 17 264 0.0 0.0 0.00 0.00 0.00 81 1008.0
20260503024524 17 264 0.0 0.0 0.00 0.00 0.00 81 1008.1
20260503023023 18 265 0.0 0.0 0.00 0.00 0.00 80 1008.2
20260503021522 18 265 0.0 0.0 0.00 0.00 0.00 79 1008.1
20260503020022 18 264 0.0 0.0 0.00 0.00 0.00 78 1008.0
20260503014552 18 265 0.0 0.0 0.00 0.00 0.00 77 1008.0
20260503013056 19 247 0.0 0.0 0.00 0.00 0.00 76 1008.0
20260503011606 20 253 0.0 0.0 0.00 0.00 0.00 75 1007.9
20260503010117 20 253 0.0 0.0 0.00 0.00 0.00 75 1008.0